ボリソフ彗星

C/2023 T2 ( Borisov )

English version
Home page
Updated on May 15, 2024

---------------------------------------------------------------------

・ プロフィール

発見日 2023年10月14日
発見光度 19.4等
発見者 Gennady Borisov (MARGO observatory near Nauchnij, Crimea)

・ 写真集

・ 軌道要素

Epoch 2024 Mar. 31.0 TT = JDT 2460400.5
T 2023 Dec. 22.79242 TT                                 Rudenko
q   1.9954508            (2000.0)            P               Q
z  +0.0043739      Peri.  111.19518     +0.14961856     -0.84919522
 +/-0.0000010      Node   317.53219     +0.36308876     +0.52360833
e   0.9912721      Incl.   48.59787     +0.91966344     -0.06856958
>From 370 observations 2023 Aug. 14-2024 Apr. 5, mean residual 0".5.

・ 光度変化

        m1 = 13.5 + 5 logΔ + 10.0 log r

---------------------------------------------------------------------

軌道要素はM.P.E.C. 2024-G193に掲載されたものです。
光度グラフはComet for Windowsで作成したものです。

---------------------------------------------------------------------

Copyright(C) Seiichi Yoshida (comet@aerith.net). All rights reserved.